This is the latest recevied weather packets stored in our database for station/object DH5DY-6. If no packets are shown the sender has not sent any weather packets the latest 10 day(s).
| Time | Temp. | Humidity | Pressure | Rain* | Wind** | Luminosity | Snow |
|---|---|---|---|---|---|---|---|
| 1777968516 | 13.33° C | 91% | 1007.7 hPa | 0 mm | - | 95 W/m² | - |
| 1777967916 | 13.33° C | 91% | 1007.8 hPa | 0 mm | - | 125 W/m² | - |
| 1777967316 | 13.33° C | 90% | 1007.8 hPa | 0 mm | - | 183 W/m² | - |
| 1777966716 | 13.33° C | 94% | 1007.9 hPa | 0 mm | - | 167 W/m² | - |
| 1777966115 | 12.78° C | 94% | 1007.8 hPa | 0 mm | - | 148 W/m² | - |
| 1777965519 | 12.78° C | 95% | 1008 hPa | 0 mm | - | 125 W/m² | - |
| 1777964916 | 12.22° C | 96% | 1008 hPa | 0 mm | - | 127 W/m² | - |
| 1777964315 | 12.22° C | 96% | 1008 hPa | 0 mm | - | 199 W/m² | - |
| 1777963718 | 12.22° C | 96% | 1008 hPa | 0 mm | - | 158 W/m² | - |
| 1777963115 | 12.22° C | 96% | 1008.1 hPa | 0 mm | - | 132 W/m² | - |
| 1777962515 | 11.67° C | 96% | 1008.2 hPa | 0 mm | - | 86 W/m² | - |
| 1777961916 | 11.67° C | 96% | 1008.1 hPa | 0 mm | - | 90 W/m² | - |
| 1777961315 | 11.67° C | 96% | 1008.1 hPa | 0 mm | - | 53 W/m² | - |
| 1777960715 | 11.67° C | 96% | 1008.1 hPa | 0 mm | - | 44 W/m² | - |
| 1777959516 | 11.11° C | 96% | 1008 hPa | 0 mm | - | 54 W/m² | - |
| 1777958915 | 11.11° C | 96% | 1007.9 hPa | 0 mm | - | 54 W/m² | - |
| 1777958318 | 11.11° C | 96% | 1008 hPa | 0 mm | - | 40 W/m² | - |
| 1777957716 | 11.11° C | 96% | 1008 hPa | 0 mm | - | 23 W/m² | - |
| 1777957116 | 11.11° C | 96% | 1008.1 hPa | 0 mm | - | 21 W/m² | - |
| 1777956515 | 10.56° C | 96% | 1008.1 hPa | 0 mm | - | 14 W/m² | - |
| 1777955916 | 10.56° C | 96% | 1008.3 hPa | 0 mm | - | 11 W/m² | - |
| 1777955315 | 10.56° C | 96% | 1008.3 hPa | 0 mm | - | 5 W/m² | - |
| 1777954715 | 11.11° C | 96% | 1008.4 hPa | 0 mm | - | 5 W/m² | - |
| 1777954115 | 11.11° C | 96% | 1008.4 hPa | 0 mm | - | 0 W/m² | - |
| 1777953515 | 11.11° C | 96% | 1008.5 hPa | 0 mm | - | 0 W/m² | - |
* Rain latest hour (hover to see other rain measurements)
** Current wind speed in m/s (hover to see current wind gust speed)